Education
NORAD ID: 36122
Int'l Code: 2009-072B
Perigee: 1,200.1 km
Apogee: 1,211.9 km
Inclination: 100.3 °
Period: 109.4 minutes
Semi major axis: 7577 km
Launch date: December 15, 2009
Source: People's Republic of China (PRC)
Comments: HOPE-1 is a minisatellite, which will be used for the China's young people to experience aerospace science and technology.
Two Line Element Set (TLE):
1 36122U 09072B 13145.77988266 -.00000044 00000-0 00000+0 0 5803
2 36122 100.3077 203.3967 0007825 047.2828 312.8938 13.16304406165461
Source: AFSPC
NASA's NSSDC Master Catalog entry for XIWANG-1 (HOPE-1)